• In Czech Republic
  • List of Countries
  • For 7 days
  • Water Temperature
  • Satellite Maps
  • Weather Map
  • Weather Widgets
  • user-avatar
    Login

    Hourly Weather Öskemen

    Today, 19 September, Wednesday

    Time Temperature Precipitation Wind Pressure Humidity
    00:00 +5°C° 0 mm 1 mps 738 mmHg 80%
    01:00 +5°C° 0 mm 1 mps 738 mmHg 79%
    02:00 +5°C° 0 mm 1 mps 738 mmHg 79%
    03:00 +5°C° 0 mm 1 mps 738 mmHg 78%
    04:00 +5°C° 0 mm 1 mps 737 mmHg 77%
    05:00 +5°C° 0 mm 1 mps 737 mmHg 76%
    06:00 +4°C° 0 mm 1 mps 737 mmHg 75%
    07:00 +7°C° 0 mm 1 mps 737 mmHg 66%
    08:00 +9°C° 0 mm 1 mps 737 mmHg 56%
    09:00 +12°C° 0 mm 2 mps 736 mmHg 46%
    10:00 +14°C° 0 mm 2 mps 736 mmHg 40%
    11:00 +16°C° 0 mm 2 mps 735 mmHg 34%
    12:00 +18°C° 0 mm 2 mps 735 mmHg 28%
    13:00 +19°C° 0 mm 2 mps 735 mmHg 26%
    14:00 +20°C° 0 mm 2 mps 734 mmHg 25%
    15:00 +20°C° 0 mm 2 mps 734 mmHg 24%
    16:00 +19°C° 0 mm 2 mps 733 mmHg 29%
    17:00 +18°C° 0 mm 1 mps 733 mmHg 34%
    18:00 +16°C° 0 mm 1 mps 733 mmHg 39%
    19:00 +14°C° 0 mm 2 mps 733 mmHg 40%
    20:00 +13°C° 0 mm 2 mps 733 mmHg 41%
    21:00 +10°C° 0 mm 2 mps 733 mmHg 42%
    22:00 +10°C° 0 mm 2 mps 733 mmHg 42%
    23:00 +9°C° 0 mm 2 mps 732 mmHg 42%

    Tomorrow, 20 September, Thursday

    Time Temperature Precipitation Wind Pressure Humidity
    00:00 +9°C° 0 mm 2 mps 732 mmHg 42%
    01:00 +9°C° 0 mm 2 mps 732 mmHg 41%
    02:00 +8°C° 0 mm 2 mps 732 mmHg 40%
    03:00 +8°C° 0 mm 2 mps 732 mmHg 39%
    04:00 +8°C° 0 mm 2 mps 732 mmHg 38%
    05:00 +8°C° 0 mm 2 mps 732 mmHg 37%
    06:00 +8°C° 0 mm 2 mps 731 mmHg 36%
    07:00 +10°C° 0 mm 3 mps 731 mmHg 34%
    08:00 +13°C° 0 mm 3 mps 731 mmHg 32%
    09:00 +15°C° 0 mm 4 mps 731 mmHg 30%
    10:00 +18°C° 0 mm 4 mps 731 mmHg 27%
    11:00 +20°C° 0 mm 5 mps 731 mmHg 24%
    12:00 +22°C° 0 mm 6 mps 731 mmHg 20%
    13:00 +23°C° 0 mm 6 mps 730 mmHg 20%
    14:00 +23°C° 0 mm 6 mps 730 mmHg 20%
    15:00 +24°C° 0 mm 6 mps 730 mmHg 20%
    16:00 +22°C° 0 mm 5 mps 730 mmHg 24%
    17:00 +21°C° 0 mm 4 mps 730 mmHg 29%
    18:00 +19°C° 0 mm 3 mps 730 mmHg 33%
    19:00 +18°C° 0 mm 3 mps 730 mmHg 32%
    20:00 +16°C° 0 mm 3 mps 730 mmHg 31%
    21:00 +14°C° 0 mm 3 mps 730 mmHg 30%
    22:00 +14°C° 0 mm 3 mps 730 mmHg 29%
    23:00 +14°C° 0 mm 3 mps 730 mmHg 28%

    Day after tomorrow, 21 September, Friday

    Time Temperature Precipitation Wind Pressure Humidity
    00:00 +13°C° 0 mm 3 mps 730 mmHg 27%
    01:00 +13°C° 0 mm 3 mps 730 mmHg 27%
    02:00 +13°C° 0 mm 3 mps 730 mmHg 26%
    03:00 +13°C° 0 mm 3 mps 730 mmHg 26%
    04:00 +14°C° 0 mm 3 mps 730 mmHg 25%
    05:00 +14°C° 0 mm 3 mps 730 mmHg 25%
    06:00 +14°C° 0 mm 3 mps 730 mmHg 25%
    07:00 +16°C° 0 mm 3 mps 731 mmHg 26%
    08:00 +18°C° 0 mm 3 mps 731 mmHg 27%
    09:00 +19°C° 0 mm 4 mps 731 mmHg 28%
    10:00 +21°C° 0 mm 4 mps 731 mmHg 26%
    11:00 +24°C° 0 mm 3 mps 732 mmHg 23%
    12:00 +25°C° 0 mm 3 mps 732 mmHg 21%
    13:00 +25°C° 0 mm 3 mps 732 mmHg 23%
    14:00 +24°C° 0 mm 3 mps 732 mmHg 24%
    15:00 +23°C° 0 mm 4 mps 732 mmHg 26%
    16:00 +21°C° 0.3 mm 4 mps 732 mmHg 36%
    17:00 +19°C° 0.3 mm 4 mps 732 mmHg 45%
    18:00 +17°C° 0.3 mm 4 mps 732 mmHg 54%
    19:00 +16°C° 0.3 mm 3 mps 733 mmHg 60%
    20:00 +16°C° 0.3 mm 3 mps 733 mmHg 66%
    21:00 +14°C° 0.3 mm 3 mps 733 mmHg 72%
    22:00 +15°C° 0 mm 2 mps 733 mmHg 73%
    23:00 +15°C° 0 mm 2 mps 733 mmHg 73%

    22 September, Saturday

    Time Temperature Precipitation Wind Pressure Humidity
    00:00 +15°C° 0 mm 2 mps 734 mmHg 74%
    01:00 +14°C° 0 mm 2 mps 734 mmHg 73%
    02:00 +14°C° 0 mm 2 mps 734 mmHg 73%
    03:00 +14°C° 0 mm 2 mps 734 mmHg 73%
    04:00 +13°C° 0 mm 2 mps 734 mmHg 72%
    05:00 +13°C° 0 mm 2 mps 734 mmHg 72%
    06:00 +13°C° 0 mm 2 mps 734 mmHg 71%
    07:00 +13°C° 0.1 mm 2 mps 734 mmHg 69%
    08:00 +14°C° 0.1 mm 2 mps 734 mmHg 66%
    09:00 +14°C° 0.1 mm 3 mps 734 mmHg 63%
    10:00 +16°C° 0.2 mm 2 mps 734 mmHg 62%
    11:00 +16°C° 0.2 mm 2 mps 734 mmHg 60%
    12:00 +17°C° 0.2 mm 2 mps 734 mmHg 58%
    13:00 +18°C° 0.1 mm 2 mps 733 mmHg 55%
    14:00 +18°C° 0.1 mm 2 mps 733 mmHg 52%
    15:00 +19°C° 0.1 mm 3 mps 732 mmHg 48%
    16:00 +18°C° 0 mm 2 mps 732 mmHg 52%
    17:00 +18°C° 0 mm 2 mps 732 mmHg 55%
    18:00 +18°C° 0 mm 1 mps 732 mmHg 59%
    19:00 +16°C° 0 mm 1 mps 732 mmHg 60%
    20:00 +14°C° 0 mm 1 mps 732 mmHg 62%
    21:00 +13°C° 0 mm 1 mps 732 mmHg 64%
    22:00 +13°C° 0 mm 1 mps 732 mmHg 64%
    23:00 +13°C° 0 mm 1 mps 732 mmHg 63%

    23 September, Sunday

    Time Temperature Precipitation Wind Pressure Humidity
    00:00 +12°C° 0 mm 2 mps 732 mmHg 63%
    01:00 +12°C° 0 mm 2 mps 732 mmHg 62%
    02:00 +13°C° 0 mm 2 mps 732 mmHg 61%
    03:00 +13°C° 0 mm 2 mps 732 mmHg 59%
    04:00 +13°C° 0 mm 2 mps 732 mmHg 59%
    05:00 +13°C° 0 mm 2 mps 732 mmHg 59%
    06:00 +12°C° 0 mm 2 mps 732 mmHg 58%
    07:00 +13°C° 0.1 mm 2 mps 732 mmHg 57%
    08:00 +14°C° 0.1 mm 2 mps 732 mmHg 55%
    09:00 +15°C° 0.1 mm 2 mps 732 mmHg 53%
    10:00 +16°C° 0.2 mm 2 mps 732 mmHg 52%
    11:00 +17°C° 0.2 mm 2 mps 731 mmHg 50%
    12:00 +18°C° 0.2 mm 3 mps 731 mmHg 49%
    13:00 +17°C° 0.2 mm 3 mps 731 mmHg 51%
    14:00 +17°C° 0.2 mm 3 mps 730 mmHg 54%
    15:00 +17°C° 0.2 mm 3 mps 730 mmHg 57%
    16:00 +16°C° 0.3 mm 3 mps 730 mmHg 63%
    17:00 +15°C° 0.3 mm 2 mps 730 mmHg 70%
    18:00 +13°C° 0.3 mm 2 mps 730 mmHg 77%
    19:00 +13°C° 0 mm 2 mps 731 mmHg 79%
    20:00 +12°C° 0 mm 1 mps 731 mmHg 80%
    21:00 +12°C° 0 mm 1 mps 731 mmHg 82%
    22:00 +11°C° 0.4 mm 1 mps 731 mmHg 84%
    23:00 +11°C° 0.4 mm 1 mps 731 mmHg 86%

    24 September, Monday

    Time Temperature Precipitation Wind Pressure Humidity
    00:00 +11°C° 0.4 mm 1 mps 731 mmHg 88%
    01:00 +11°C° 0.5 mm 1 mps 730 mmHg 90%
    02:00 +11°C° 0.5 mm 1 mps 730 mmHg 91%
    03:00 +11°C° 0.5 mm 1 mps 730 mmHg 93%
    04:00 +11°C° 0.3 mm 1 mps 730 mmHg 93%
    05:00 +10°C° 0.3 mm 1 mps 730 mmHg 93%
    06:00 +10°C° 0.3 mm 1 mps 730 mmHg 94%
    07:00 +11°C° 0.3 mm 1 mps 730 mmHg 91%
    08:00 +12°C° 0.3 mm 1 mps 730 mmHg 89%
    09:00 +11°C° 0.3 mm 0 mps 730 mmHg 87%
    10:00 +12°C° 1.2 mm 1 mps 730 mmHg 87%
    11:00 +12°C° 1.2 mm 2 mps 730 mmHg 88%
    12:00 +12°C° 1.2 mm 2 mps 729 mmHg 89%
    13:00 +12°C° 1 mm 2 mps 729 mmHg 87%
    14:00 +12°C° 1 mm 2 mps 729 mmHg 85%
    15:00 +12°C° 1 mm 2 mps 729 mmHg 84%
    16:00 +12°C° 0.2 mm 2 mps 730 mmHg 83%
    17:00 +12°C° 0.2 mm 2 mps 730 mmHg 83%
    18:00 +10°C° 0.2 mm 2 mps 731 mmHg 82%
    19:00 +10°C° 0.2 mm 2 mps 731 mmHg 84%
    20:00 +9°C° 0.2 mm 2 mps 731 mmHg 85%
    21:00 +8°C° 0.2 mm 2 mps 732 mmHg 86%
    22:00 +8°C° 0.1 mm 2 mps 732 mmHg 88%
    23:00 +7°C° 0.1 mm 2 mps 732 mmHg 90%
    Show more